GW5385 Weather Reports


time (UTC)temp
C
wind
direction
speed
KPH
gust
KPH
rain 1hr
cm
rain 24hr
cm
rain mn
cm
humidity
%
barometer
mb
20260505153041 5 356 12.9 20.9 0.00 0.00 0.00 52 1021.8
20260505151535 4 324 8.0 20.9 0.00 0.00 0.00 59 1021.7
20260505124515 1 304 0.0 4.8 0.00 0.00 0.00 74 1021.1
20260505123015 0 303 0.0 4.8 0.00 0.00 0.00 74 1020.9
20260505121514 0 312 0.0 4.8 0.00 0.00 0.00 75 1020.9
20260505120016 -1 323 0.0 1.6 0.00 0.00 0.00 76 1020.8
20260505114507 0 303 0.0 0.0 0.00 0.00 0.00 72 1020.9
20260505113003 0 328 0.0 1.6 0.00 0.00 0.00 68 1020.8
20260505111600 1 342 3.2 9.7 0.00 0.00 0.00 67 1020.8
20260505101547 2 354 6.4 11.3 0.00 0.00 0.00 58 1020.5
20260505100047 2 16 6.4 11.3 0.00 0.00 0.00 59 1020.5
20260505094514 2 15 4.8 6.4 0.00 0.00 0.00 62 1020.4
20260505093023 2 344 3.2 9.7 0.00 0.00 0.00 61 1020.2
20260505091507 2 22 6.4 14.5 0.00 0.00 0.00 60 1020.4
20260505090005 2 30 4.8 8.0 0.00 0.00 0.00 60 1020.2
20260505084505 2 42 1.6 3.2 0.00 0.00 0.00 58 1020.2
20260505083008 2 15 0.0 0.0 0.00 0.00 0.00 58 1020.2
20260505081501 3 346 0.0 1.6 0.00 0.00 0.00 57 1020.3
20260505080113 3 338 3.2 6.4 0.00 0.00 0.00 55 1020.2
20260505074607 3 9 4.8 9.7 0.00 0.00 0.00 56 1020.0
20260505073058 4 360 6.4 14.5 0.00 0.00 0.00 56 1020.1
20260505071558 4 352 3.2 8.0 0.00 0.00 0.00 54 1020.0
20260505070052 4 342 6.4 12.9 0.00 0.00 0.00 53 1020.0
20260505064547 3 339 3.2 9.7 0.00 0.00 0.00 53 1020.0
20260505063104 2 16 4.8 8.0 0.00 0.00 0.00 56 1020.0
20260505061604 1 335 0.0 4.8 0.00 0.00 0.00 57 1019.7
20260505060034 2 34 3.2 6.4 0.00 0.00 0.00 56 1019.8
20260505054533 2 48 6.4 9.7 0.00 0.00 0.00 56 1019.8
20260505053039 1 3 4.8 6.4 0.00 0.00 0.00 59 1019.7
20260505051508 0 334 1.6 4.8 0.00 0.00 0.00 62 1019.6
20260505041552 1 287 0.0 1.6 0.00 0.00 0.00 54 1019.7
20260505040046 2 353 1.6 3.2 0.00 0.00 0.00 52 1019.5
20260505034540 3 276 0.0 3.2 0.00 0.00 0.00 51 1019.4
20260505033037 4 37 0.0 3.2 0.00 0.00 0.00 49 1019.1
20260505031532 5 34 3.2 11.3 0.00 0.00 0.00 47 1018.9
20260505030030 6 42 9.7 16.1 0.00 0.00 0.00 45 1018.7
20260505024523 6 35 14.5 25.7 0.00 0.00 0.00 44 1018.4
20260505023020 7 27 20.9 29.0 0.00 0.00 0.00 42 1018.3
20260505021521 8 34 22.5 32.2 0.00 0.00 0.00 39 1018.0
20260505021518 8 42 22.5 32.2 0.00 0.00 0.00 39 1018.0
20260505020017 8 39 24.1 33.8 0.00 0.00 0.00 37 1017.8
20260505014518 10 27 25.7 35.4 0.00 0.00 0.00 33 1017.6
20260505013013 10 32 14.5 32.2 0.00 0.00 0.00 28 1017.4
20260505011517 11 358 16.1 29.0 0.00 0.00 0.00 28 1017.2
20260505010013 11 339 20.9 38.6 0.00 0.00 0.00 24 1017.3
20260505004511 11 342 17.7 40.2 0.00 0.00 0.00 25 1017.2
20260505003040 12 4 24.1 37.0 0.00 0.00 0.00 23 1017.1
20260505001540 12 341 24.1 37.0 0.00 0.00 0.00 22 1017.2
20260505000009 12 333 19.3 35.4 0.00 0.00 0.00 22 1017.1
20260504234509 12 335 25.7 41.8 0.00 0.00 0.00 24 1017.2
20260504233006 12 15 25.7 43.5 0.00 0.00 0.00 25 1017.1
20260504231505 12 330 20.9 37.0 0.00 0.00 0.00 25 1017.2
20260504230004 12 332 20.9 45.1 0.00 0.00 0.00 25 1017.3
20260504224503 12 310 17.7 37.0 0.00 0.00 0.00 25 1017.1
20260504223001 12 356 20.9 35.4 0.00 0.00 0.00 26 1017.2
20260504221600 12 343 19.3 46.7 0.00 0.00 0.00 29 1017.3
20260504220058 12 338 24.1 38.6 0.00 0.00 0.00 27 1017.3
20260504214558 12 333 22.5 33.8 0.00 0.00 0.00 30 1017.3
20260504213053 13 326 24.1 38.6 0.00 0.00 0.00 29 1017.4
20260504211551 12 12 19.3 37.0 0.00 0.00 0.00 31 1017.5
20260504210105 11 335 19.3 37.0 0.00 0.00 0.00 31 1017.7
20260504204557 12 36 25.7 40.2 0.00 0.00 0.00 31 1017.7
20260504203102 11 1 25.7 35.4 0.00 0.00 0.00 33 1017.6
20260504201546 11 340 16.1 32.2 0.00 0.00 0.00 35 1017.6
20260504200045 12 359 20.9 33.8 0.00 0.00 0.00 33 1017.5
20260504194546 12 335 19.3 37.0 0.00 0.00 0.00 32 1017.4
20260504193041 12 331 22.5 37.0 0.00 0.00 0.00 34 1017.6
20260504191542 13 332 19.3 37.0 0.00 0.00 0.00 34 1017.5
20260504190101 12 314 27.4 41.8 0.00 0.00 0.00 34 1017.5
20260504184540 13 14 19.3 35.4 0.00 0.00 0.00 36 1017.4
20260504183036 12 304 16.1 40.2 0.00 0.00 0.00 36 1017.3
20260504181540 12 348 24.1 41.8 0.00 0.00 0.00 35 1017.4
20260504180034 12 333 17.7 35.4 0.00 0.00 0.00 37 1017.5
20260504174532 12 345 17.7 35.4 0.00 0.00 0.00 37 1017.6
20260504173028 11 340 17.7 32.2 0.00 0.00 0.00 38 1017.6
20260504171526 11 352 14.5 30.6 0.00 0.00 0.00 39 1017.7